Weather History for Ames, IA

Change the Weather History Date:

Monday, November 12, 2012

  Actual Average Record
Temperature  
Mean Temperature 28 °F 38 °F  
Max Temperature 35 °F 48 °F 66 °F (1999)
Min Temperature 20 °F 29 °F 10 °F (2013)
Degree Days  
Heating Degree Days 37 27  
Month to date heating degree days 252 286  
Since 1 July heating degree days 904 882  
Cooling Degree Days 0 0  
Month to date cooling degree days 0 0  
Year to date cooling degree days 1067 752  
Moisture  
Dew Point 17 °F    
Average Humidity 64    
Maximum Humidity 84    
Minimum Humidity 44    
Precipitation  
Precipitation 0.00 in 0.08 in 2.68 in (1982)
Month to date precipitation 0.98 1.07  
Sea Level Pressure  
Sea Level Pressure 30.25 in    
Wind  
Wind Speed 13 mph (West)    
Max Wind Speed 28 mph    
Max Gust Speed 33 mph    
Visibility 10 miles    
Events      
T = Trace of Precipitation, MM = Missing Value Source: NWS Daily Summary

Daily Weather History Graph

Daily Weather History Graph

Search for Another Location

Airport:

Trip Planner

Search our weather history database for the weather conditions in past years. The results will help you decide how hot, cold, wet, or windy it might be!

Date:

Astronomy

Nov. 12, 2012 Rise Set
Actual Time 7:01 AM CST 4:55 PM CST
Civil Twilight 6:31 AM CST 5:25 PM CST
Nautical Twilight 5:57 AM CST 5:59 PM CST
Astronomical Twilight 5:24 AM CST 6:31 PM CST
Moon 5:26 AM CST (11/12) 4:01 PM CST (11/12)
Length of Visible Light 10h 54m
Length of Day
9h 54m
Waning Crescent, 2% of the Moon is Illuminated
Nov 12
Waning Crescent
Nov 13
New
Nov 20
First Quarter
Nov 28
Full
Dec 6
Last Quarter

Hourly Weather History & Observations

Time (CST) Temp. Windchill Dew Point Humidity Pressure Visibility Wind Dir Wind Speed Gust Speed Precip Events Conditions
12:53 AM 21.9 °F 13.4 °F 15.1 °F 75% 30.14 in 10.0 mi West 6.9 mph - N/A   Clear
1:53 AM 21.9 °F 11.0 °F 15.1 °F 75% 30.14 in 10.0 mi West 10.4 mph - N/A   Clear
2:53 AM 21.0 °F 10.6 °F 16.0 °F 81% 30.16 in 10.0 mi West 9.2 mph - N/A   Clear
3:53 AM 21.0 °F 9.9 °F 15.1 °F 78% 30.15 in 10.0 mi West 10.4 mph - N/A   Clear
4:53 AM 21.0 °F 9.3 °F 16.0 °F 81% 30.16 in 10.0 mi WSW 11.5 mph - N/A   Clear
5:53 AM 21.0 °F 9.9 °F 16.0 °F 81% 30.16 in 10.0 mi WSW 10.4 mph - N/A   Clear
6:53 AM 21.0 °F 8.6 °F 16.0 °F 81% 30.18 in 10.0 mi West 12.7 mph - N/A   Clear
7:53 AM 21.9 °F 8.2 °F 17.1 °F 82% 30.19 in 10.0 mi WSW 16.1 mph - N/A   Clear
8:53 AM 25.0 °F 10.2 °F 17.1 °F 72% 30.21 in 10.0 mi West 21.9 mph 26.5 mph N/A   Clear
9:53 AM 28.0 °F 14.3 °F 18.0 °F 66% 30.22 in 10.0 mi West 21.9 mph 27.6 mph N/A   Clear
10:53 AM 30.0 °F 17.9 °F 19.0 °F 64% 30.22 in 10.0 mi West 18.4 mph 29.9 mph N/A   Partly Cloudy
11:53 AM 32.0 °F 20.1 °F 21.0 °F 64% 30.22 in 10.0 mi West 19.6 mph 28.8 mph N/A   Clear
12:53 PM 33.1 °F 20.9 °F 19.9 °F 59% 30.22 in 10.0 mi West 21.9 mph 31.1 mph N/A   Partly Cloudy
1:53 PM 34.0 °F 21.5 °F 19.0 °F 54% 30.22 in 10.0 mi WNW 24.2 mph 31.1 mph N/A   Partly Cloudy
2:53 PM 35.1 °F 25.5 °F 16.0 °F 46% 30.24 in 10.0 mi WNW 15.0 mph 32.2 mph N/A   Clear
3:53 PM 35.1 °F 25.2 °F 17.1 °F 48% 30.26 in 10.0 mi WNW 16.1 mph 26.5 mph N/A   Clear
4:53 PM 33.1 °F 23.4 °F 16.0 °F 50% 30.29 in 10.0 mi WNW 13.8 mph 23.0 mph N/A   Clear
5:53 PM 30.9 °F 21.7 °F 18.0 °F 59% 30.32 in 10.0 mi West 11.5 mph - N/A   Clear
6:53 PM 28.9 °F 20.4 °F 19.0 °F 67% 30.34 in 10.0 mi West 9.2 mph - N/A   Clear
7:53 PM 25.0 °F 18.1 °F 19.9 °F 81% 30.36 in 10.0 mi West 5.8 mph - N/A   Clear
8:53 PM 24.1 °F 16.0 °F 19.0 °F 81% 30.38 in 10.0 mi West 6.9 mph - N/A   Clear
9:53 PM 23.0 °F 15.8 °F 18.0 °F 81% 30.40 in 10.0 mi West 5.8 mph - N/A   Clear
10:53 PM 21.9 °F 13.4 °F 18.0 °F 85% 30.40 in 10.0 mi West 6.9 mph - N/A   Clear
11:53 PM 21.0 °F 13.4 °F 18.0 °F 88% 30.41 in 10.0 mi West 5.8 mph - N/A   Clear